Location: Henham
(51.9333°N, 0.2500°E)
Time: 21:37:40
(UTC+00:00)

CZ-2D R/B - Pass Details

Date: 23 October 2019
Orbit: 522 x 539 km, 97.4° (Epoch: 22 November)

Event Time Altitude Azimuth Distance (km) Brightness Sun altitude
Rises 17:32:54 0° 129° (SE) 2,678 6.4 -7.4°
Reaches altitude 10° 17:35:20 10° 115° (ESE) 1,794 5.4 -7.8°
Maximum altitude 17:38:22 22° 63° (ENE) 1,199 4.5 -8.3°
Drops below altitude 10° 17:41:26 10° 11° (NNE) 1,811 5.8 -8.7°
Sets 17:43:53 0° 357° (N) 2,709 6.8 -9.1°
